Location: Peterborough
(44.3091°N, 78.3197°W)
Time: 01:14:35
(UTC-04:00)

Courier 1B - Pass Details

Date: 23 February 2024
Orbit: 962 x 1208 km, 28.3° (Epoch: 17 April)

Event Time Altitude Azimuth Distance (km) Brightness Sun altitude
Exits shadow 04:33:02 17° 182° (S) 2,316 9.3 -27.1°
Drops below altitude 10° 04:36:29 10° 152° (SSE) 2,825 10.1 -26.5°
Sets 04:40:16 0° 133° (SE) 3,828 11.1 -25.9°
